ETD91 OMAA-LGAV

Flight info

Callsign ETD91
Flight time N/A
Altitude 38000
Route BOSEV N563 ALPOB L768 VATIM L550 RUKET/N0475F400 L550 NOVPA J981 DATOK L550 GENIV L324 LAKTO DCT ANIDE DCT AKINA UL995 PIDAX/N0417F240 L995 VARIX
Aircraft A346/H-SDE2E3FGHIJ3J4J5M1RWXY/LB1D1

Departure

Time 2026-05-01 11:02
Airport Zayed International Airport (OMAA)

Arrival

Time N/A
Airport Athens Eleftherios Venizelos International Airport (LGAV)
Time Latitude Longitude Altitude Speed Heading
2026-05-01 10:37 24.43330 54.64012 102 ft 0 kts 218°
2026-05-01 10:49 24.43332 54.64014 101 ft 3 kts 214°
2026-05-01 10:50 24.43336 54.64016 101 ft 4 kts 203°
2026-05-01 10:50 24.43361 54.64026 102 ft 4 kts 195°
2026-05-01 10:50 24.43387 54.64032 100 ft 4 kts 187°
2026-05-01 10:50 24.43414 54.64034 100 ft 4 kts 179°
2026-05-01 10:51 24.43428 54.64033 100 ft 1 kts 177°
2026-05-01 10:51 24.43429 54.64033 100 ft 0 kts 177°
2026-05-01 10:54 24.43416 54.64042 103 ft 5 kts 118°
2026-05-01 10:54 24.43392 54.64094 101 ft 9 kts 125°
2026-05-01 10:54 24.43350 54.64158 104 ft 12 kts 126°
2026-05-01 10:55 24.43296 54.64236 102 ft 14 kts 126°
2026-05-01 10:55 24.43317 54.64323 103 ft 14 kts 40°
2026-05-01 10:55 24.43402 54.64396 102 ft 17 kts 37°
2026-05-01 10:55 24.43442 54.64507 102 ft 18 kts 108°
2026-05-01 10:56 24.43370 54.64629 102 ft 20 kts 127°
2026-05-01 10:56 24.43280 54.64760 101 ft 22 kts 127°
2026-05-01 10:56 24.43181 54.64899 102 ft 24 kts 128°
2026-05-01 10:56 24.43074 54.65048 103 ft 25 kts 129°
2026-05-01 10:57 24.42959 54.65204 103 ft 27 kts 129°
2026-05-01 10:57 24.42838 54.65367 103 ft 28 kts 129°
2026-05-01 10:57 24.42713 54.65539 102 ft 29 kts 129°
2026-05-01 10:57 24.42585 54.65716 103 ft 30 kts 127°
2026-05-01 10:58 24.42458 54.65902 102 ft 31 kts 127°
2026-05-01 10:58 24.42327 54.66090 103 ft 31 kts 128°
2026-05-01 10:58 24.42195 54.66282 104 ft 32 kts 128°
2026-05-01 10:58 24.42071 54.66456 102 ft 18 kts 128°
2026-05-01 10:59 24.42042 54.66571 102 ft 14 kts 72°
2026-05-01 10:59 24.42052 54.66589 103 ft 0 kts 51°
2026-05-01 10:59 24.42052 54.66590 103 ft 1 kts 51°
2026-05-01 10:59 24.42060 54.66597 103 ft 2 kts 37°
2026-05-01 11:00 24.42080 54.66615 101 ft 5 kts 40°
2026-05-01 11:00 24.42118 54.66651 101 ft 9 kts 40°
2026-05-01 11:00 24.42174 54.66697 100 ft 6 kts 12°
2026-05-01 11:00 24.42195 54.66679 99 ft 0 kts 307°
2026-05-01 11:01 24.42202 54.66670 100 ft 8 kts 307°
2026-05-01 11:01 24.42349 54.66465 102 ft 65 kts 308°
2026-05-01 11:01 24.42745 54.65909 102 ft 119 kts 308°
2026-05-01 11:01 24.43354 54.65049 103 ft 164 kts 308°
2026-05-01 11:02 24.44117 54.63964 247 ft 189 kts 306°
2026-05-01 11:02 24.44928 54.62776 699 ft 199 kts 308°
2026-05-01 11:02 24.45748 54.61523 1282 ft 204 kts 308°
2026-05-01 11:02 24.46586 54.60274 1927 ft 202 kts 310°
2026-05-01 11:03 24.47446 54.59083 2532 ft 195 kts 311°
2026-05-01 11:03 24.48293 54.57926 3001 ft 195 kts 311°
2026-05-01 11:03 24.49158 54.56763 3384 ft 200 kts 311°
2026-05-01 11:03 24.50062 54.55537 3670 ft 213 kts 311°
2026-05-01 11:04 24.51011 54.54230 3931 ft 226 kts 310°
2026-05-01 11:04 24.52017 54.52829 4131 ft 241 kts 309°
2026-05-01 11:04 24.53083 54.51330 4448 ft 257 kts 309°
2026-05-01 11:04 24.54210 54.49739 4896 ft 267 kts 308°
2026-05-01 11:05 24.55360 54.48116 5580 ft 269 kts 307°
2026-05-01 11:05 24.56491 54.46518 6319 ft 268 kts 307°
2026-05-01 11:05 24.57637 54.44893 6986 ft 269 kts 306°
2026-05-01 11:05 24.58791 54.43257 7676 ft 272 kts 306°
2026-05-01 11:06 24.59955 54.41607 8361 ft 274 kts 306°
2026-05-01 11:06 24.61130 54.39942 8825 ft 276 kts 306°
2026-05-01 11:06 24.62314 54.38269 9005 ft 277 kts 306°
2026-05-01 11:07 24.64694 54.34906 9114 ft 284 kts 306°
2026-05-01 11:07 24.65916 54.33183 9866 ft 283 kts 305°
2026-05-01 11:07 24.67128 54.31474 10598 ft 285 kts 305°
2026-05-01 11:07 24.68379 54.29704 10951 ft 301 kts 305°
2026-05-01 11:08 24.69706 54.27823 11255 ft 318 kts 305°
2026-05-01 11:08 24.71104 54.25845 11573 ft 335 kts 305°
2026-05-01 11:08 24.74088 54.21623 12135 ft 367 kts 305°
2026-05-01 11:09 24.75682 54.19369 12661 ft 375 kts 305°
2026-05-01 11:09 24.77292 54.17094 13392 ft 378 kts 305°
2026-05-01 11:09 24.78915 54.14801 14045 ft 381 kts 305°
2026-05-01 11:10 24.82208 54.10135 15249 ft 389 kts 304°
2026-05-01 11:10 24.83806 54.07712 15831 ft 392 kts 301°
2026-05-01 11:10 24.85295 54.05176 16428 ft 395 kts 299°
2026-05-01 11:10 24.86756 54.02582 17035 ft 399 kts 298°
2026-05-01 11:11 24.88223 53.99961 17613 ft 403 kts 298°
2026-05-01 11:11 24.89703 53.97317 18211 ft 405 kts 298°
2026-05-01 11:11 24.91189 53.94662 18760 ft 408 kts 298°
2026-05-01 11:11 24.92684 53.91992 19276 ft 411 kts 298°
2026-05-01 11:12 24.94196 53.89287 19791 ft 414 kts 297°
2026-05-01 11:12 24.95697 53.86603 20301 ft 417 kts 297°
2026-05-01 11:12 24.97229 53.83862 20816 ft 421 kts 297°
2026-05-01 11:12 24.98767 53.81107 21335 ft 424 kts 297°
2026-05-01 11:13 25.00380 53.78348 21843 ft 429 kts 300°
2026-05-01 11:13 25.02189 53.75689 22351 ft 436 kts 304°
2026-05-01 11:13 25.04204 53.73154 22852 ft 442 kts 308°
2026-05-01 11:13 25.06393 53.70729 23354 ft 448 kts 310°
2026-05-01 11:14 25.08633 53.68324 23832 ft 450 kts 310°
2026-05-01 11:14 25.10891 53.65915 24303 ft 451 kts 310°
2026-05-01 11:14 25.13152 53.63501 24775 ft 452 kts 310°
2026-05-01 11:14 25.15419 53.61075 25207 ft 454 kts 310°
2026-05-01 11:15 25.17687 53.58643 25643 ft 456 kts 310°
2026-05-01 11:15 25.19971 53.56190 26068 ft 458 kts 310°
2026-05-01 11:15 25.22235 53.53757 26480 ft 460 kts 310°
2026-05-01 11:15 25.24530 53.51287 26877 ft 461 kts 310°
2026-05-01 11:16 25.26834 53.48805 27295 ft 463 kts 310°
2026-05-01 11:16 25.29138 53.46323 27726 ft 464 kts 310°
2026-05-01 11:16 25.31450 53.43833 28165 ft 464 kts 310°
2026-05-01 11:16 25.33761 53.41345 28703 ft 462 kts 310°
2026-05-01 11:17 25.36053 53.38875 29282 ft 459 kts 310°
2026-05-01 11:17 25.38334 53.36415 29826 ft 456 kts 310°
2026-05-01 11:17 25.40605 53.33965 30270 ft 454 kts 310°
2026-05-01 11:17 25.42870 53.31520 30657 ft 453 kts 309°
2026-05-01 11:18 25.45125 53.29085 31062 ft 453 kts 309°
2026-05-01 11:18 25.47377 53.26652 31468 ft 451 kts 309°
2026-05-01 11:18 25.49616 53.24232 31868 ft 450 kts 309°
2026-05-01 11:18 25.51847 53.21814 32260 ft 449 kts 309°
2026-05-01 11:19 25.54076 53.19395 32648 ft 448 kts 308°
2026-05-01 11:19 25.56277 53.17005 33014 ft 447 kts 308°
2026-05-01 11:19 25.58498 53.14591 33386 ft 446 kts 308°
2026-05-01 11:19 25.60715 53.12182 33768 ft 446 kts 308°
2026-05-01 11:20 25.62926 53.09778 34075 ft 445 kts 308°
2026-05-01 11:20 25.65101 53.07352 34408 ft 442 kts 306°
2026-05-01 11:20 25.67150 53.04834 34738 ft 438 kts 303°
2026-05-01 11:20 25.69064 53.02231 35024 ft 435 kts 300°
2026-05-01 11:21 25.70855 52.99533 35293 ft 432 kts 298°
2026-05-01 11:21 25.72511 52.96759 35531 ft 430 kts 295°
2026-05-01 11:21 25.74037 52.93911 35788 ft 428 kts 292°
2026-05-01 11:21 25.75447 52.91001 36042 ft 427 kts 291°
2026-05-01 11:22 25.76833 52.88074 36278 ft 427 kts 291°
2026-05-01 11:22 25.78198 52.85183 36490 ft 429 kts 291°
2026-05-01 11:22 25.79584 52.82245 36697 ft 430 kts 291°
2026-05-01 11:22 25.80975 52.79295 36908 ft 431 kts 291°
2026-05-01 11:23 25.82369 52.76339 37122 ft 432 kts 291°
2026-05-01 11:23 25.83768 52.73373 37329 ft 434 kts 291°
2026-05-01 11:23 25.85171 52.70395 37542 ft 435 kts 291°
2026-05-01 11:23 25.86579 52.67409 37755 ft 436 kts 291°
2026-05-01 11:24 25.89400 52.61411 37852 ft 438 kts 291°
2026-05-01 11:25 25.93462 52.52302 37867 ft 437 kts 290°
2026-05-01 11:25 25.97467 52.43193 37868 ft 437 kts 289°
2026-05-01 11:26 26.01486 52.34122 37861 ft 437 kts 290°
2026-05-01 11:27 26.04191 52.28066 37861 ft 437 kts 290°
2026-05-01 11:27 26.06897 52.21997 37862 ft 437 kts 290°
2026-05-01 11:28 26.09599 52.15933 37886 ft 437 kts 289°
2026-05-01 11:28 26.12299 52.09870 37871 ft 436 kts 289°
2026-05-01 11:29 26.16333 52.00776 37868 ft 436 kts 289°
2026-05-01 11:30 26.20410 51.91695 37868 ft 436 kts 289°